TimeCDT,TemperatureF,Dew PointF,Humidity,Sea Level PressureIn,VisibilityMPH,Wind Direction,Wind SpeedMPH,Gust SpeedMPH,PrecipitationIn,Events,Conditions,WindDirDegrees,DateUTC
12:15 AM,47.7,18.0,31,30.28,10.0,SSE,8.1,-,N/A,,Clear,150,2013-03-27 05:15:00
12:35 AM,48.4,18.5,31,30.28,10.0,SSE,9.2,-,N/A,,Clear,160,2013-03-27 05:35:00
12:55 AM,47.8,20.8,34,30.27,10.0,South,9.2,-,N/A,,Clear,170,2013-03-27 05:55:00
1:15 AM,47.1,22.8,38,30.26,10.0,South,8.1,-,N/A,,Clear,170,2013-03-27 06:15:00
1:35 AM,45.1,24.3,44,30.26,10.0,South,5.8,-,N/A,,Clear,170,2013-03-27 06:35:00
1:55 AM,45.3,25.2,45,30.26,10.0,South,5.8,-,N/A,,Clear,170,2013-03-27 06:55:00
2:15 AM,44.6,26.8,50,30.25,10.0,South,8.1,-,N/A,,Clear,170,2013-03-27 07:15:00
2:35 AM,44.1,28.0,53,30.25,10.0,South,5.8,-,N/A,,Clear,170,2013-03-27 07:35:00
2:55 AM,44.6,28.4,53,30.24,10.0,South,5.8,-,N/A,,Clear,170,2013-03-27 07:55:00
3:15 AM,43.9,28.8,55,30.24,10.0,SSE,3.5,-,N/A,,Clear,160,2013-03-27 08:15:00
3:35 AM,43.0,28.9,58,30.24,10.0,South,5.8,-,N/A,,Clear,170,2013-03-27 08:35:00
3:55 AM,43.3,29.7,59,30.23,10.0,South,6.9,-,N/A,,Clear,190,2013-03-27 08:55:00
4:15 AM,43.0,29.7,59,30.23,10.0,South,4.6,-,N/A,,Clear,190,2013-03-27 09:15:00
4:35 AM,42.1,29.3,61,30.23,10.0,SSW,5.8,-,N/A,,Clear,200,2013-03-27 09:35:00
4:55 AM,42.8,29.3,59,30.22,10.0,South,6.9,-,N/A,,Clear,190,2013-03-27 09:55:00
5:15 AM,42.6,29.1,59,30.22,10.0,South,5.8,-,N/A,,Clear,180,2013-03-27 10:15:00
5:35 AM,40.6,28.6,62,30.22,10.0,South,5.8,-,N/A,,Clear,180,2013-03-27 10:35:00
5:55 AM,42.4,28.8,58,30.22,10.0,South,8.1,-,N/A,,Clear,190,2013-03-27 10:55:00
6:15 AM,42.3,28.2,58,30.22,10.0,South,5.8,-,N/A,,Clear,180,2013-03-27 11:15:00
6:35 AM,41.9,28.2,58,30.23,10.0,South,5.8,-,N/A,,Clear,180,2013-03-27 11:35:00
6:55 AM,41.7,28.9,61,30.23,10.0,South,4.6,-,N/A,,Clear,170,2013-03-27 11:55:00
7:15 AM,41.9,29.8,62,30.23,10.0,SSE,4.6,-,N/A,,Clear,160,2013-03-27 12:15:00
7:35 AM,42.6,31.1,64,30.24,10.0,South,4.6,-,N/A,,Clear,170,2013-03-27 12:35:00
7:55 AM,41.9,32.0,68,30.24,10.0,South,3.5,-,N/A,,Clear,170,2013-03-27 12:55:00
8:15 AM,44.6,32.9,64,30.25,10.0,SSE,3.5,-,N/A,,Mostly Cloudy,150,2013-03-27 13:15:00
8:35 AM,46.4,34.2,62,30.25,10.0,SSE,4.6,-,N/A,,Overcast,150,2013-03-27 13:35:00
8:55 AM,48.9,35.1,59,30.25,10.0,South,9.2,-,N/A,,Overcast,180,2013-03-27 13:55:00
9:15 AM,50.4,33.6,53,30.26,10.0,SSE,9.2,-,N/A,,Overcast,160,2013-03-27 14:15:00
9:55 AM,51.8,32.5,48,30.28,10.0,South,9.2,17.3,N/A,,Overcast,170,2013-03-27 14:55:00
10:15 AM,52.3,32.5,47,30.28,10.0,South,12.7,17.3,N/A,,Overcast,170,2013-03-27 15:15:00
10:35 AM,53.6,32.7,45,30.27,10.0,South,9.2,-,N/A,,Overcast,170,2013-03-27 15:35:00
10:55 AM,55.4,32.5,42,30.27,10.0,South,11.5,17.3,N/A,,Overcast,170,2013-03-27 15:55:00
11:15 AM,56.7,30.4,37,30.27,10.0,South,16.1,23.0,N/A,,Overcast,190,2013-03-27 16:15:00
11:35 AM,57.4,31.8,38,30.27,10.0,SSW,17.3,25.3,N/A,,Overcast,200,2013-03-27 16:35:00
11:55 AM,58.1,33.6,40,30.27,10.0,SSW,20.7,25.3,N/A,,Overcast,200,2013-03-27 16:55:00
12:35 PM,59.4,36.3,42,30.26,10.0,South,17.3,-,N/A,,Unknown,180,2013-03-27 17:35:00
12:55 PM,60.8,39.2,45,30.25,10.0,SSW,16.1,24.2,N/A,,Overcast,200,2013-03-27 17:55:00
1:15 PM,61.2,40.5,47,30.24,10.0,South,17.3,24.2,N/A,,Overcast,190,2013-03-27 18:15:00
1:35 PM,60.6,41.0,48,30.23,10.0,South,16.1,23.0,N/A,,Overcast,180,2013-03-27 18:35:00
1:55 PM,59.7,40.8,50,30.23,10.0,South,15.0,21.9,N/A,,Overcast,180,2013-03-27 18:55:00
2:15 PM,59.2,41.5,52,30.22,10.0,SSW,16.1,-,N/A,,Overcast,200,2013-03-27 19:15:00
2:55 PM,62.1,42.4,49,30.20,10.0,South,13.8,20.7,N/A,,Overcast,180,2013-03-27 19:55:00
3:15 PM,62.1,42.6,49,30.19,10.0,South,16.1,20.7,N/A,,Mostly Cloudy,180,2013-03-27 20:15:00
3:35 PM,63.5,43.9,49,30.17,10.0,South,12.7,24.2,N/A,,Scattered Clouds,190,2013-03-27 20:35:00
3:55 PM,65.7,43.9,45,30.16,10.0,South,16.1,23.0,N/A,,Scattered Clouds,190,2013-03-27 20:55:00
4:15 PM,65.5,43.7,45,30.15,10.0,South,17.3,23.0,N/A,,Clear,190,2013-03-27 21:15:00
4:35 PM,65.3,43.0,44,30.14,10.0,South,13.8,24.2,N/A,,Clear,170,2013-03-27 21:35:00
4:55 PM,64.8,42.6,45,30.14,10.0,South,15.0,21.9,N/A,,Clear,190,2013-03-27 21:55:00
5:15 PM,64.8,43.5,46,30.14,10.0,South,15.0,27.6,N/A,,Clear,170,2013-03-27 22:15:00
5:35 PM,64.4,43.0,46,30.14,10.0,South,13.8,23.0,N/A,,Clear,180,2013-03-27 22:35:00
5:55 PM,64.8,43.7,46,30.14,10.0,South,11.5,21.9,N/A,,Scattered Clouds,180,2013-03-27 22:55:00
6:15 PM,64.6,43.2,46,30.14,10.0,South,18.4,24.2,N/A,,Scattered Clouds,190,2013-03-27 23:15:00
6:35 PM,64.0,43.2,47,30.14,10.0,SSW,17.3,-,N/A,,Clear,210,2013-03-27 23:35:00
6:55 PM,63.1,43.7,49,30.14,10.0,South,15.0,20.7,N/A,,Clear,170,2013-03-27 23:55:00
7:15 PM,62.1,44.1,52,30.14,10.0,South,13.8,19.6,N/A,,Scattered Clouds,170,2013-03-28 00:15:00
7:35 PM,60.8,44.6,55,30.14,10.0,South,13.8,21.9,N/A,,Scattered Clouds,170,2013-03-28 00:35:00
7:55 PM,59.5,44.8,58,30.14,10.0,South,11.5,-,N/A,,Scattered Clouds,180,2013-03-28 00:55:00
8:15 PM,59.0,44.8,59,30.15,10.0,South,8.1,-,N/A,,Scattered Clouds,180,2013-03-28 01:15:00
8:35 PM,58.3,44.8,61,30.16,10.0,South,13.8,17.3,N/A,,Scattered Clouds,170,2013-03-28 01:35:00
8:55 PM,58.1,45.0,62,30.16,10.0,South,11.5,-,N/A,,Clear,180,2013-03-28 01:55:00
9:15 PM,57.6,45.0,63,30.16,10.0,South,10.4,-,N/A,,Clear,180,2013-03-28 02:15:00
9:35 PM,56.7,45.0,65,30.16,10.0,South,9.2,-,N/A,,Clear,170,2013-03-28 02:35:00
9:55 PM,56.3,45.0,66,30.16,10.0,South,6.9,-,N/A,,Clear,170,2013-03-28 02:55:00
10:15 PM,56.3,45.3,67,30.16,10.0,SSE,6.9,-,N/A,,Clear,160,2013-03-28 03:15:00
10:35 PM,55.8,45.3,68,30.17,10.0,South,4.6,-,N/A,,Clear,170,2013-03-28 03:35:00
10:55 PM,55.0,45.5,70,30.18,10.0,South,6.9,-,N/A,,Clear,180,2013-03-28 03:55:00
11:15 PM,55.4,46.0,71,30.18,10.0,South,9.2,-,N/A,,Clear,180,2013-03-28 04:15:00
11:35 PM,54.7,46.4,74,30.18,10.0,South,9.2,-,N/A,,Clear,180,2013-03-28 04:35:00
11:55 PM,54.0,46.4,76,30.18,10.0,South,6.9,-,N/A,,Clear,170,2013-03-28 04:55:00